Regional Weather Roundup
Issued by NWS

Current Version | Previous Version | Text Only | Print | Product List | Glossary On
Versions: 1 2 3 4 5 6 7 8 9 10 11 12 13 14 15 16 17 18 19 20 21 22 23 24 25 26 27 28 29 30 31 32 33 34 35 36 37 38 39 40 41 42 43 44 45 46 47 48 49 50
000
ASUS44 KJAN 012010
RWRMS

MISSISSIPPI HOURLY WEATHER ROUNDUP
NATIONAL WEATHER SERVICE JACKSON MS
300 PM CDT SAT AUG 01 2015

NOTE: "FAIR: INDICATES FEW OR NO CLOUDS BELOW 12,000 FEET WITH NO
SIGNIFICANT WEATHER AND/OR OBSTRUCTIONS TO VISIBILITY.

MSZ001>002-007>008-010>013-018>021-025>028-034>036-012100-
NORTHWEST MISSISSIPPI

CITY           SKY/WX    TMP DP  RH WIND       PRES   REMARKS
CLARKSDALE     FAIR      93  64  38 NE6       29.99F HX  95
CLEVELAND      FAIR      94  61  33 NE9       29.98S HX  94
GREENWOOD      SUNNY     94  57  28 NE12      29.96F HX  92
GREENVILLE     SUNNY     93  65  39 VRB5      29.98F HX  95
OLIVE BRANCH   MOSUNNY   93  61  33 N7        29.99F HX  93
OXFORD         FAIR      91  61  35 NE7G16    30.01F HX  91
TUNICA         CLEAR     91  59  33 N9        29.99F HX  90
$$

MSZ003>006-009-014>017-022>024-029>033-037>039-012100-
NORTHEAST MISSISSIPPI

CITY           SKY/WX    TMP DP  RH WIND       PRES   REMARKS
COLUMBUS AFB   SUNNY     95  57  28 NE15G21   29.95F HX  93
CORINTH        FAIR      91  63  38 NE8       29.98F HX  92
GOLDN TRIANGLE MOSUNNY   95  57  28 NE14G21   29.95F HX  94
STARKVILLE     FAIR      91  57  31 NE14      29.96F HX  90
TUPELO         SUNNY     93  60  33 E12       29.97F HX  93
$$

MSZ040-058-012100-
CENTRAL MISSISSIPPI

CITY           SKY/WX    TMP DP  RH WIND       PRES   REMARKS
JACKSON INTL   SUNNY     96  54  24 N17G28    29.94  HX  94
JACKSON HAWKNS SUNNY     94  55  26 NE10G21   29.95F HX  92
MERIDIAN KEY   SUNNY     93  57  29 NE13      29.93F HX  91
MERIDIAN NAS   SUNNY     93  58  30 NE8       29.93F HX  92
VICKSBURG      SUNNY     95  61  32 NE12      29.96F HX  95
$$

MSZ059>079-012100-
SOUTH MISSISSIPPI

CITY           SKY/WX    TMP DP  RH WIND       PRES   REMARKS
BROOKHAVEN     FAIR      91  57  31 NE7       29.96F HX  90
HATTIESBURG    SUNNY     93  58  30 NE9       29.92F HX  92
MCCOMB         SUNNY     95  57  27 NE7       29.93F HX  94
NATCHEZ        SUNNY     90  64  43 N13       29.96F HX  91
PINE BELT      SUNNY     93  55  27 N12G17    29.95S HX  91
$$

MSZ080>082-012100-
COASTAL MISSISSIPPI

CITY           SKY/WX    TMP DP  RH WIND       PRES   REMARKS
BAY ST LOUIS   MOSUNNY   91  63  38 N8G14     29.89F HX  92
BILOXI         MOSUNNY   92  70  47 NE8       29.87F HX  97
PASCAGOULA     MOSUNNY   92  73  53 N3        29.87F HX 100
GULFPORT       MOSUNNY   92  66  42 N8        29.87F HX  94
$$



USA.gov is the U.S. government's official web portal to all federal, state and local government web resources and services.